Weather History for Buffalo, SD

Change the Weather History Date:

Tuesday, November 27, 2012

  Actual Average Record
Temperature  
Mean Temperature 31 °F 26 °F  
Max Temperature 42 °F 36 °F 57 °F (2011)
Min Temperature 20 °F 16 °F 6 °F (1996)
Degree Days  
Heating Degree Days 34 39  
Month to date heating degree days 786 877  
Since 1 July heating degree days 1598 1778  
Cooling Degree Days 0 0  
Month to date cooling degree days 0 0  
Year to date cooling degree days 853 513  
Moisture  
Dew Point 17 °F    
Average Humidity 62    
Maximum Humidity 91    
Minimum Humidity 33    
Precipitation  
Precipitation 0.00 in 0.00 in 0.05 in (1999)
Month to date precipitation 0.11 0.31  
Year to date precipitation 8.28 14.23  
Sea Level Pressure  
Sea Level Pressure 30.15 in    
Wind  
Wind Speed 8 mph (West)    
Max Wind Speed 16 mph    
Max Gust Speed 20 mph    
T = Trace of Precipitation, MM = Missing Value Source: NWS Daily Summary

Daily Weather History Graph

Daily Weather History Graph

Search for Another Location

Airport:

Trip Planner

Search our weather history database for the weather conditions in past years. The results will help you decide how hot, cold, wet, or windy it might be!

Date:

Astronomy

Nov. 27, 2012 Rise Set
Actual Time 7:10 AM MST 4:13 PM MST
Civil Twilight 6:36 AM MST 4:46 PM MST
Nautical Twilight 5:59 AM MST 5:23 PM MST
Astronomical Twilight 5:24 AM MST 5:59 PM MST
Moon 3:47 PM MST 6:16 AM MST
Length of Visible Light 10h 10m
Length of Day
9h 03m
Waxing Gibbous, 99% of the Moon is Illuminated
Nov 27
Waxing Gibbous
Nov 28
Full
Dec 6
Last Quarter
Dec 13
New
Dec 19
First Quarter

Hourly Weather History & Observations

Time (MST) Temp. Windchill Dew Point Humidity Pressure Visibility Wind Dir Wind Speed Gust Speed Precip Events Conditions
12:56 AM 23.0 °F 13.9 °F 19.9 °F 88% 30.10 in - WSW 8.1 mph - N/A   Unknown
1:56 AM 24.1 °F 16.0 °F 19.9 °F 84% 30.09 in - West 6.9 mph - N/A   Unknown
2:56 AM 19.9 °F 8.6 °F 17.1 °F 89% 30.11 in - West 10.4 mph - N/A   Unknown
3:56 AM 19.9 °F 9.3 °F 17.1 °F 89% 30.11 in - West 9.2 mph - N/A   Unknown
4:56 AM 21.9 °F 12.5 °F 18.0 °F 85% 30.11 in - West 8.1 mph - N/A   Unknown
5:56 AM 23.0 °F 13.9 °F 18.0 °F 81% 30.12 in - West 8.1 mph - N/A   Unknown
6:56 AM 23.0 °F 17.0 °F 18.0 °F 81% 30.13 in - WNW 4.6 mph - N/A   Unknown
7:56 AM 21.0 °F 13.4 °F 18.0 °F 88% 30.15 in - WSW 5.8 mph - N/A   Unknown
8:56 AM 24.1 °F 18.2 °F 19.9 °F 84% 30.16 in - West 4.6 mph - N/A   Unknown
9:56 AM 30.0 °F 24.1 °F 23.0 °F 75% 30.17 in - West 5.8 mph - N/A   Unknown
10:56 AM 37.0 °F 30.4 °F 19.9 °F 50% 30.14 in - West 9.2 mph - N/A   Unknown
11:56 AM 39.0 °F 32.3 °F 19.9 °F 46% 30.13 in - WNW 10.4 mph - N/A   Unknown
12:56 PM 42.1 °F 35.2 °F 16.0 °F 35% 30.12 in - WNW 12.7 mph - N/A   Unknown
1:56 PM 41.0 °F 33.9 °F 16.0 °F 36% 30.12 in - NW 12.7 mph - N/A   Unknown
2:56 PM 41.0 °F 34.3 °F 18.0 °F 40% 30.14 in - NNW 11.5 mph - N/A   Unknown
3:56 PM 37.9 °F 31.5 °F 15.1 °F 39% 30.17 in - NNW 9.2 mph - N/A   Unknown
4:56 PM 34.0 °F 27.2 °F 16.0 °F 48% 30.19 in - North 8.1 mph - N/A   Unknown
5:56 PM 33.1 °F 25.5 °F 17.1 °F 52% 30.19 in - NNW 9.2 mph - N/A   Unknown
6:56 PM 30.9 °F 24.3 °F 17.1 °F 57% 30.20 in - North 6.9 mph - N/A   Unknown
7:56 PM 27.0 °F 21.6 °F 15.1 °F 61% 30.22 in - SW 4.6 mph - N/A   Unknown
8:56 PM 28.9 °F 25.2 °F 16.0 °F 58% 30.21 in - WSW 3.5 mph - N/A   Unknown
9:56 PM 24.1 °F 18.2 °F 14.0 °F 65% 30.21 in - SSW 4.6 mph - N/A   Unknown
10:56 PM 21.9 °F 13.4 °F 12.9 °F 68% 30.19 in - South 6.9 mph - N/A   Unknown
11:56 PM 23.0 °F 18.4 °F 14.0 °F 68% 30.18 in - South 3.5 mph - N/A   Unknown